Terug naar catalogus

ONEWEB-0391

ActiefCommunicatiePO
NORAD 50471·PAYLOAD·🇬🇧 United Kingdom

Gelanceerd Dec 27, 2021 vanaf Baikonur Cosmodrome

Loading…

Volgende Passages (komende 24 uur)

TLE

VersSource: CelesTrak SupGP

Epoch: Sep 14, 2026, 23:10 UTC

1 50471C 21132C   26257.96542083 -.00000890  00000+0 -22949-2 0  2578
2 50471  87.9198 348.0500 0002038 127.4363 264.7785 13.17647597    10

Volg ONEWEB-0391 in realtime met AllMySat

Download on the App Store